Flag for Cuba Weather past 2 weeks in Camagüey, Cuba

Now
90 °F

Partly sunny.


Feels Like: 90 °F
Forecast: 70 / 90 °F
Wind: 2 mph from North

Location: Camaguey Aeropuerto

Current Time: May 30, 2015 at 3:29:28 PM

Latest Report: May 30, 2015 at 2:53 PM


Visibility: 6 mi

Pressure: 29.98 "Hg

Humidity: 38%

Dew point: 61 °F

Location of CamagüeyLocation

Historic Weather in Camagüey — Graph

°F

Camagüey temperature yesterday

Maximum temperature yesterday: 88 °F (at 2:50 PM)
Minimum temperature yesterday: 70 °F (at 5:50 AM)
Average temperature yesterday: 79 °F

Past Weeks' High & Low Weather Summary

 TemperatureHumidityPressure
High91 °F (May 19, 2:50 PM)94% (May 16, 4:52 AM)30.15 "Hg (May 16, 4:52 AM)
Low68 °F (May 21, 5:50 PM)38% (May 19, 2:50 PM)29.92 "Hg (May 20, 4:50 PM)
Average79 °F72%30.06 "Hg
* Reported May 15 1:50 PM — May 30 1:54 PM, Camagüey, Weather by CustomWeather, © 2015

Note: Actual official high and low records may vary slightly from our data, if they occured in-between our weather recording intervals... More about our weather records

Advertising

Camagüey weather history for previous 24 hours

 ConditionsComfort  
Time TempWeatherWind HumidityBarometerVisibility
1:54 PM
Sat, May 30
90 °FPartly sunny.2 mph38%29.98 "HgN/A
12:50 PM88 °FPartly sunny.3 mph43%30.01 "HgN/A
11:50 AM86 °FPartly sunny.8 mph52%30.01 "HgN/A
10:51 AM84 °FPassing clouds.9 mph58%30.01 "HgN/A
9:50 AM81 °FScattered clouds.9 mph66%30.04 "HgN/A
8:51 AM79 °FPassing clouds.10 mph70%30.04 "HgN/A
7:51 AM75 °FClear.7 mph78%30.04 "Hg6 mi
6:51 AM72 °FClear.6 mph83%30.01 "Hg6 mi
5:50 AM72 °FPassing clouds.6 mph83%30.01 "Hg6 mi
4:50 AM75 °FPassing clouds.3 mph78%30.01 "Hg6 mi
3:50 AM73 °FPassing clouds.6 mph83%30.01 "Hg6 mi
2:50 AM72 °FPassing clouds.5 mph83%30.01 "Hg6 mi
1:51 AM73 °FPassing clouds.5 mph78%30.01 "Hg6 mi
12:50 AM75 °FPassing clouds.7 mph74%30.04 "Hg6 mi
11:52 PM
Fri, May 29
73 °FPassing clouds.6 mph78%30.04 "Hg6 mi
10:52 PM75 °FPartly cloudy.6 mph74%30.07 "Hg6 mi
9:51 PM77 °FPartly cloudy.6 mph69%30.07 "Hg6 mi
8:50 PM77 °FPartly cloudy.10 mph69%30.01 "Hg6 mi
7:50 PM79 °FBroken clouds.14 mph61%30.01 "Hg6 mi
6:51 PM81 °FPassing clouds.17 mph54%29.98 "Hg6 mi
5:50 PM84 °FPassing clouds.17 mph48%29.98 "Hg6 mi
4:50 PM88 °FScattered clouds.14 mph43%29.95 "Hg6 mi
3:50 PM88 °FPartly sunny.7 mph43%29.98 "Hg6 mi
Weather by CustomWeather, © 2015

See weather overviewHow to use our weather pages